[[{"header":{"parameterUnit":"m.s-1","parameterCategory":1,"la1":30.2991,"la2":30.254,"lo1":-89.0895,"lo2":-89.0444,"dx":0.0017,"dy":0.0017,"nx":28,"ny":28,"refTime":"2022-12-14T15:00:00:Z","depth":0,"parameterNumber":2,"parameterNumberName":"U-component_of_WINDS"},"data":[0,0,0,0,0,0,0,0,0,0,0,0,0,0,0,0,0,0,0,0,0,0,0,0,0,0,0,0,0,0,0,0,0,0,0,0,0,0,0,0,0,0,0,0,0,0,0,0,0,0,0,0,0,0,0,0,0,0,2.0674,2.0674,0,2.0708,2.0708,2.0709,2.0701,2.07,2.07,2.0699,2.0734,2.0735,2.0737,0,0,0,0,0,0,0,0,0,0,0,0,0,2.0602,2.0603,2.0674,2.0674,2.0674,2.0708,2.0708,2.0709,2.0701,2.07,2.0699,2.0699,2.0733,2.0735,2.0737,0,0,0,0,0,0,0,0,0,0,0,0,0,2.0634,2.0604,2.0673,2.0675,2.0675,2.0708,2.0708,2.0709,2.0701,2.07,2.0699,2.0698,2.0732,2.0735,2.0737,2.077,0,0,2.0744,2.0745,0,0,0,0,0,0,0,0,2.0633,2.0637,2.0674,2.0675,2.0675,2.0699,2.0696,2.0729,2.0701,2.0691,2.0699,2.0698,2.0723,2.0726,2.0734,2.0772,2.0774,2.0744,2.0745,2.0746,2.0747,0,0,0,0,0,0,0,2.063,2.0636,2.0687,2.0675,2.0675,2.0674,2.0677,2.0702,2.0712,2.0692,2.0692,2.0696,2.0723,2.0732,2.0735,2.0774,2.0744,2.0746,2.0747,2.0748,2.0843,2.0844,0,0,0,0,0,0,2.0628,2.0634,2.0686,2.0688,2.0651,2.0676,2.068,2.0692,2.0712,2.0714,2.0697,2.0695,2.0729,2.0732,2.0736,2.0778,2.0746,2.0749,2.075,2.0842,2.0843,2.0844,0,0,0,0,0,0,2.0626,2.0632,2.0685,2.0661,2.0667,2.0678,2.0692,2.0694,2.0703,2.0715,2.0717,2.0704,2.0728,2.0733,2.0763,2.0779,2.075,2.0752,2.084,2.0842,2.0844,2.0861,0,0,0,0,0,0,2.0624,2.0632,2.0644,2.0661,2.0669,2.071,2.0693,2.0695,2.0707,2.0706,2.0723,2.0725,2.0728,2.0759,2.0765,2.0782,2.0753,2.0839,2.0841,2.0843,2.0859,2.0863,2.0867,0,0,0,0,0,2.0622,2.0647,2.0645,2.0651,2.0685,2.0711,2.0715,2.0718,2.0708,2.0721,2.0729,2.0724,2.0776,2.0762,2.0768,2.0786,2.0838,2.0841,2.0843,2.0857,2.0862,2.0867,0,0,0,0,0,0,2.0631,2.0649,2.0647,2.0679,2.0694,2.071,2.0726,2.0723,2.0741,2.0739,2.0742,2.0746,2.0776,2.0784,2.0768,2.0821,2.0806,2.081,2.0814,2.0819,2.0823,2.0821,2.0755,0,0,0,0,0,2.0638,2.0657,2.0672,2.0699,2.0706,2.0715,2.0727,2.0728,2.0743,2.0749,2.0759,2.0774,2.0794,2.0807,2.0826,2.086,2.0865,2.0876,2.088,2.0883,2.0886,2.0906,2.0912,2.0853,2.0853,2.0853,0,0,2.065,2.0662,2.0674,2.0701,2.0713,2.0734,2.072,2.0742,2.0758,2.0752,2.0781,2.0789,2.0806,2.0839,2.0853,2.0846,2.0904,2.0886,2.0888,2.089,2.091,2.0915,2.092,2.0855,2.0854,2.0854,0,0,2.0683,2.0694,2.0719,2.0731,2.0749,2.0754,2.076,2.0777,2.0783,2.0812,2.0808,2.0827,2.0861,2.0874,2.0885,2.0925,2.0921,2.0931,2.0951,2.0971,2.0976,2.098,2.0995,2.1001,2.0935,2.0935,2.0935,0,2.0696,2.0728,2.0731,2.0755,2.0767,2.0764,2.0789,2.08,2.0823,2.0832,2.0824,2.0868,2.0879,2.0915,2.0925,2.0933,2.0941,2.0929,2.0975,2.0979,2.0983,2.0998,2.1003,2.0936,2.0936,2.0936,2.0935,0,2.0744,2.0766,2.0783,2.0806,2.0821,2.0845,2.0853,2.0867,2.0867,2.0874,2.0905,2.0918,2.0941,2.0949,2.0949,2.0986,2.0981,2.0974,2.0959,2.0989,2.1004,2.1009,2.0937,2.0937,2.0937,2.0936,0,0,2.0783,2.0809,2.0816,2.0827,2.0847,2.0865,2.0889,2.0912,2.0924,2.0941,2.0962,2.0992,2.0985,2.0998,2.1,2.1017,2.105,2.1008,2.1008,2.1016,2.1092,2.1098,2.1105,2.1048,2.1049,2.105,2.1091,0,2.0819,2.0863,2.0867,2.0906,2.0927,2.0925,2.0947,2.0962,2.0969,2.0989,2.0997,2.1019,2.1008,2.1016,2.1033,2.1042,2.1065,2.1039,2.1068,2.1069,2.1064,2.1112,2.1118,2.1156,2.1097,2.1098,2.1098,0,2.0867,2.0886,2.0927,2.0946,2.0955,2.0974,2.0996,2.1014,2.1032,2.1036,2.1051,2.1051,2.1077,2.1062,2.1098,2.108,2.1092,2.1099,2.1101,2.1104,2.1086,2.1117,2.1168,2.1175,2.1107,2.1106,2.1105,0,2.0893,2.0928,2.0958,2.0968,2.099,2.1004,2.1014,2.1031,2.1045,2.1064,2.1073,2.1095,2.1107,2.1124,2.113,2.1118,2.1167,2.1151,2.1172,2.1172,2.1182,2.1182,2.1237,2.1189,2.1189,2.1189,2.1189,0,2.0933,2.0958,2.097,2.0989,2.1018,2.1023,2.1052,2.1061,2.1077,2.1097,2.1096,2.1116,2.1123,2.1144,2.1149,2.1179,2.1184,2.1189,2.119,2.1189,2.1189,2.1198,2.1195,2.1191,2.119,2.119,2.119,0,2.0967,2.0976,2.1008,2.1028,2.1033,2.1054,2.107,2.1089,2.1096,2.1123,2.1129,2.1141,2.1166,2.1174,2.1204,2.1207,2.1243,2.1241,2.1237,2.1237,2.1258,2.1256,2.1322,2.1331,2.1276,2.1277,2.1277,0,2.0992,2.1012,2.1034,2.1048,2.1059,2.1081,2.1095,2.1102,2.1117,2.114,2.1155,2.118,2.12,2.1239,2.1251,2.1274,2.1274,2.1295,2.1277,2.1276,2.1275,2.1274,2.1277,2.1298,2.1299,2.1299,2.13,0,2.1036,2.104,2.1061,2.1084,2.1101,2.112,2.1137,2.1149,2.1158,2.1176,2.1201,2.1217,2.1248,2.1272,2.1296,2.1307,2.1305,2.1306,2.1312,2.1311,2.1308,2.1311,2.1247,2.1304,2.1303,2.1303,2.1303,2.1303,2.1067,2.1085,2.1104,2.1128,2.1142,2.1159,2.1177,2.1188,2.121,2.1236,2.1238,2.1266,2.1285,2.1317,2.1329,2.1351,2.1345,2.1354,2.1356,2.1358,2.136,2.1305,2.1355,2.1355,2.1355,2.1355,2.1355,0,2.1112,2.1124,2.1146,2.1172,2.1191,2.1188,2.1208,2.1224,2.1249,2.1266,2.1287,2.1317,2.1341,2.1355,2.138,2.1395,2.1395,2.1401,2.1401,2.1403,2.1364,2.1356,2.1401,2.1401,2.1401,2.1401,2.1401,2.1401,2.1137,2.1169,2.1175,2.1214,2.1226,2.1253,2.1265,2.1281,2.1296,2.1329,2.135,2.1359,2.1376,2.1402,2.1425,2.1428,2.1438,2.1445,2.1448,2.1411,2.1406,2.1401,2.1395,2.1447,2.1447,2.1486,2.1486,2.1487]},{"header":{"parameterUnit":"m.s-1","parameterCategory":1,"la1":30.2991,"la2":30.254,"lo1":-89.0895,"lo2":-89.0444,"dx":0.0017,"dy":0.0017,"nx":28,"ny":28,"refTime":"2022-12-14T15:00:00:Z","depth":0,"parameterNumber":3,"parameterNumberName":"V-component_of_WINDS"},"data":[0,0,0,0,0,0,0,0,0,0,0,0,0,0,0,0,0,0,0,0,0,0,0,0,0,0,0,0,0,0,0,0,0,0,0,0,0,0,0,0,0,0,0,0,0,0,0,0,0,0,0,0,0,0,0,0,0,0,-3.2463,-3.2463,0,-3.2534,-3.2534,-3.2535,-3.2553,-3.2552,-3.2552,-3.2551,-3.2621,-3.2623,-3.2626,0,0,0,0,0,0,0,0,0,0,0,0,0,-3.2341,-3.2343,-3.2462,-3.2463,-3.2464,-3.2533,-3.2534,-3.2535,-3.2553,-3.2552,-3.2552,-3.2551,-3.262,-3.2623,-3.2626,0,0,0,0,0,0,0,0,0,0,0,0,0,-3.2401,-3.2343,-3.2462,-3.2481,-3.2484,-3.2533,-3.2534,-3.2536,-3.2553,-3.2552,-3.2551,-3.2551,-3.262,-3.2623,-3.2626,-3.2661,0,0,-3.2637,-3.2638,0,0,0,0,0,0,0,0,-3.2397,-3.2405,-3.2478,-3.248,-3.2483,-3.2534,-3.2517,-3.2578,-3.2553,-3.2527,-3.2551,-3.2551,-3.2592,-3.2598,-3.2613,-3.2664,-3.2667,-3.2637,-3.2639,-3.2641,-3.2642,0,0,0,0,0,0,0,-3.2393,-3.2402,-3.2491,-3.2479,-3.2482,-3.2486,-3.2494,-3.2529,-3.2562,-3.2529,-3.253,-3.2539,-3.2594,-3.2609,-3.2615,-3.2668,-3.2637,-3.264,-3.2642,-3.2643,-3.2754,-3.2755,0,0,0,0,0,0,-3.2386,-3.2399,-3.2488,-3.2493,-3.2438,-3.2489,-3.2497,-3.2518,-3.2562,-3.2568,-3.2539,-3.2539,-3.2604,-3.261,-3.2617,-3.2662,-3.2641,-3.2644,-3.2646,-3.2754,-3.2755,-3.2756,0,0,0,0,0,0,-3.2383,-3.2394,-3.2485,-3.2446,-3.2458,-3.2492,-3.2514,-3.252,-3.2536,-3.257,-3.2576,-3.2549,-3.2604,-3.2612,-3.2651,-3.2665,-3.2645,-3.2648,-3.2753,-3.2754,-3.2755,-3.2752,0,0,0,0,0,0,-3.238,-3.2393,-3.2406,-3.2446,-3.246,-3.2518,-3.2515,-3.2522,-3.2542,-3.2542,-3.2581,-3.2586,-3.2604,-3.2646,-3.2654,-3.2669,-3.2651,-3.2751,-3.2753,-3.2755,-3.2751,-3.2753,-3.2755,0,0,0,0,0,-3.2375,-3.2401,-3.2407,-3.2418,-3.2478,-3.2519,-3.2527,-3.2547,-3.2543,-3.2557,-3.2579,-3.2585,-3.2662,-3.2649,-3.2659,-3.2676,-3.2751,-3.2753,-3.2755,-3.275,-3.2753,-3.2755,0,0,0,0,0,0,-3.2361,-3.2407,-3.2413,-3.2454,-3.2483,-3.2522,-3.254,-3.2549,-3.2579,-3.2578,-3.2601,-3.2609,-3.2647,-3.2665,-3.265,-3.2713,-3.2706,-3.271,-3.27,-3.2702,-3.2704,-3.2699,-3.2654,0,0,0,0,0,-3.2362,-3.2392,-3.2431,-3.2463,-3.2477,-3.2506,-3.2525,-3.2538,-3.2568,-3.258,-3.2605,-3.2634,-3.2665,-3.2685,-3.2715,-3.2754,-3.2763,-3.277,-3.2772,-3.2774,-3.2777,-3.2801,-3.2805,-3.2762,-3.2762,-3.2762,0,0,-3.2365,-3.2395,-3.2412,-3.246,-3.2484,-3.2515,-3.2516,-3.2548,-3.2571,-3.2585,-3.2624,-3.2643,-3.2677,-3.2716,-3.2735,-3.2733,-3.2791,-3.2776,-3.2777,-3.278,-3.2804,-3.2808,-3.2811,-3.2764,-3.2763,-3.2763,0,0,-3.2388,-3.2412,-3.2442,-3.2467,-3.2504,-3.2524,-3.2531,-3.257,-3.2584,-3.2623,-3.2635,-3.2662,-3.2714,-3.2739,-3.2758,-3.2792,-3.2799,-3.2801,-3.2811,-3.2834,-3.2838,-3.2841,-3.2854,-3.2859,-3.2804,-3.2804,-3.2804,0,-3.2387,-3.2434,-3.2456,-3.2489,-3.251,-3.2526,-3.2557,-3.2579,-3.2624,-3.2638,-3.2635,-3.2703,-3.2726,-3.2773,-3.2782,-3.2796,-3.2805,-3.2796,-3.2835,-3.2839,-3.2842,-3.2855,-3.286,-3.2804,-3.2804,-3.2804,-3.2804,0,-3.2432,-3.2464,-3.2484,-3.2529,-3.2553,-3.2584,-3.2611,-3.2632,-3.2644,-3.2664,-3.2705,-3.2734,-3.2772,-3.2784,-3.2794,-3.2833,-3.283,-3.2831,-3.2825,-3.2846,-3.2859,-3.2864,-3.2804,-3.2804,-3.2804,-3.2804,0,0,-3.2445,-3.2504,-3.2511,-3.2532,-3.2575,-3.2601,-3.2633,-3.2671,-3.269,-3.272,-3.2749,-3.2794,-3.2795,-3.2817,-3.2831,-3.2851,-3.2879,-3.285,-3.2851,-3.2855,-3.2924,-3.2924,-3.2929,-3.2884,-3.2885,-3.2885,-3.2922,0,-3.2474,-3.2533,-3.2556,-3.2604,-3.2636,-3.2652,-3.2681,-3.271,-3.273,-3.276,-3.2781,-3.2814,-3.2813,-3.2826,-3.2847,-3.2871,-3.2893,-3.2868,-3.291,-3.2912,-3.2902,-3.2936,-3.2935,-3.2968,-3.2927,-3.2928,-3.2928,0,-3.2514,-3.2547,-3.26,-3.2641,-3.2655,-3.268,-3.2718,-3.2746,-3.278,-3.2793,-3.2819,-3.2832,-3.2867,-3.2859,-3.2908,-3.2891,-3.291,-3.2924,-3.2926,-3.2931,-3.2922,-3.2943,-3.2979,-3.2984,-3.2936,-3.2935,-3.2935,0,-3.252,-3.2578,-3.2618,-3.2635,-3.2684,-3.2702,-3.2723,-3.2756,-3.2779,-3.2811,-3.2826,-3.2862,-3.2882,-3.2909,-3.2932,-3.2924,-3.298,-3.2973,-3.2992,-3.2992,-3.3004,-3.3003,-3.3044,-3.3014,-3.3014,-3.3014,-3.3014,0,-3.255,-3.2582,-3.2622,-3.2646,-3.2682,-3.2708,-3.2743,-3.2765,-3.2796,-3.2825,-3.284,-3.2867,-3.2895,-3.2926,-3.2944,-3.2983,-3.2991,-3.3003,-3.3008,-3.3002,-3.3001,-3.3015,-3.3014,-3.3015,-3.3015,-3.3015,-3.3014,0,-3.2563,-3.2591,-3.2636,-3.2679,-3.2691,-3.2716,-3.2753,-3.2778,-3.2799,-3.2836,-3.2846,-3.2879,-3.2916,-3.2942,-3.2989,-3.3001,-3.3044,-3.3047,-3.3033,-3.3035,-3.3054,-3.3052,-3.3106,-3.3115,-3.3078,-3.3078,-3.3079,0,-3.2581,-3.2606,-3.2653,-3.2674,-3.2696,-3.273,-3.2753,-3.278,-3.2803,-3.2846,-3.2865,-3.2904,-3.2936,-3.2995,-3.3023,-3.306,-3.3065,-3.3081,-3.307,-3.3065,-3.3067,-3.3065,-3.3069,-3.3083,-3.3083,-3.3084,-3.3084,0,-3.2609,-3.2622,-3.2656,-3.2695,-3.2724,-3.2755,-3.2787,-3.2803,-3.2836,-3.2861,-3.2901,-3.2926,-3.2975,-3.3014,-3.3054,-3.3075,-3.3085,-3.3087,-3.3094,-3.3089,-3.308,-3.3087,-3.3039,-3.3086,-3.3086,-3.3085,-3.3085,-3.3085,-3.2626,-3.265,-3.2688,-3.2725,-3.2753,-3.2783,-3.2809,-3.2835,-3.2868,-3.2911,-3.2925,-3.2966,-3.3001,-3.3056,-3.3078,-3.311,-3.3109,-3.3118,-3.3121,-3.3123,-3.3124,-3.3075,-3.3117,-3.3117,-3.3117,-3.3117,-3.3117,0,-3.2656,-3.2682,-3.2717,-3.2762,-3.2792,-3.28,-3.2837,-3.2861,-3.2897,-3.293,-3.2962,-3.3008,-3.3046,-3.3078,-3.3118,-3.3138,-3.3143,-3.3147,-3.3146,-3.3151,-3.3122,-3.3113,-3.3142,-3.3142,-3.3142,-3.3142,-3.3142,-3.3142,-3.2676,-3.2718,-3.2736,-3.2792,-3.2817,-3.2859,-3.2879,-3.2907,-3.2934,-3.2985,-3.3017,-3.3038,-3.3071,-3.3114,-3.3149,-3.3158,-3.3172,-3.3175,-3.3184,-3.3156,-3.3153,-3.3151,-3.3142,-3.3177,-3.3177,-3.3212,-3.3212,-3.3212]}]]